When you browse on this site, cookies collect data to enhance your experience and personalize the content and advertising you see.
Visit our Privacy Policy to learn more. By continuing to use the site, you agree to this use of cookies and data.
  • în România
  • Lista ţărilor
  • Pe 7 zile
  • Temperatura apei
  • Hartă satelitară
  • Meteo pe hartă
  • Widget-uri
  • user-avatar
    Intrare

    Meteo pe oră la Arriba

    Astăzi, 16 Februarie, Sâmbătă

    Timp Temperatura Precipitaţii Vânt Presiune Umiditate
    00:00 +13°C° 0 mm 2 m/s 759 mmHg 67%
    01:00 +12°C° 0 mm 2 m/s 759 mmHg 68%
    02:00 +12°C° 0 mm 2 m/s 759 mmHg 69%
    03:00 +10°C° 0 mm 2 m/s 758 mmHg 70%
    04:00 +10°C° 0 mm 2 m/s 758 mmHg 69%
    05:00 +10°C° 0 mm 3 m/s 758 mmHg 68%
    06:00 +10°C° 0 mm 3 m/s 758 mmHg 67%
    07:00 +11°C° 0 mm 3 m/s 759 mmHg 64%
    08:00 +12°C° 0 mm 4 m/s 759 mmHg 62%
    09:00 +13°C° 0 mm 4 m/s 759 mmHg 59%
    10:00 +14°C° 0 mm 4 m/s 759 mmHg 53%
    11:00 +17°C° 0 mm 4 m/s 759 mmHg 46%
    12:00 +19°C° 0 mm 4 m/s 759 mmHg 39%
    13:00 +20°C° 0 mm 4 m/s 759 mmHg 37%
    14:00 +20°C° 0 mm 3 m/s 758 mmHg 36%
    15:00 +21°C° 0 mm 3 m/s 758 mmHg 34%
    16:00 +19°C° 0 mm 3 m/s 758 mmHg 42%
    17:00 +17°C° 0 mm 2 m/s 758 mmHg 49%
    18:00 +16°C° 0 mm 2 m/s 758 mmHg 56%
    19:00 +15°C° 0 mm 2 m/s 758 mmHg 60%
    20:00 +13°C° 0 mm 2 m/s 759 mmHg 64%
    21:00 +12°C° 0 mm 1 m/s 759 mmHg 68%
    22:00 +12°C° 0 mm 1 m/s 759 mmHg 65%
    23:00 +11°C° 0 mm 1 m/s 759 mmHg 63%

    Mâine, 17 Februarie, Duminică

    Timp Temperatura Precipitaţii Vânt Presiune Umiditate
    00:00 +10°C° 0 mm 2 m/s 759 mmHg 60%
    01:00 +10°C° 0 mm 2 m/s 759 mmHg 57%
    02:00 +9°C° 0 mm 2 m/s 759 mmHg 54%
    03:00 +9°C° 0 mm 2 m/s 759 mmHg 51%
    04:00 +9°C° 0 mm 2 m/s 759 mmHg 51%
    05:00 +8°C° 0 mm 2 m/s 759 mmHg 50%
    06:00 +8°C° 0 mm 2 m/s 758 mmHg 49%
    07:00 +9°C° 0 mm 2 m/s 759 mmHg 49%
    08:00 +10°C° 0 mm 3 m/s 759 mmHg 49%
    09:00 +11°C° 0 mm 3 m/s 759 mmHg 49%
    10:00 +13°C° 0 mm 3 m/s 759 mmHg 47%
    11:00 +16°C° 0 mm 3 m/s 759 mmHg 45%
    12:00 +18°C° 0 mm 3 m/s 759 mmHg 43%
    13:00 +18°C° 0 mm 3 m/s 758 mmHg 44%
    14:00 +19°C° 0 mm 4 m/s 758 mmHg 45%
    15:00 +20°C° 0 mm 4 m/s 757 mmHg 45%
    16:00 +18°C° 0 mm 3 m/s 757 mmHg 54%
    17:00 +17°C° 0 mm 3 m/s 757 mmHg 63%
    18:00 +16°C° 0 mm 3 m/s 757 mmHg 72%
    19:00 +14°C° 0 mm 3 m/s 757 mmHg 76%
    20:00 +13°C° 0 mm 3 m/s 757 mmHg 79%
    21:00 +12°C° 0 mm 3 m/s 757 mmHg 83%
    22:00 +12°C° 0 mm 3 m/s 756 mmHg 82%
    23:00 +11°C° 0 mm 4 m/s 756 mmHg 82%

    Poimâine, 18 Februarie, Luni

    Timp Temperatura Precipitaţii Vânt Presiune Umiditate
    00:00 +11°C° 0 mm 4 m/s 756 mmHg 81%
    01:00 +11°C° 0 mm 4 m/s 755 mmHg 81%
    02:00 +11°C° 0 mm 4 m/s 755 mmHg 81%
    03:00 +11°C° 0 mm 4 m/s 754 mmHg 81%
    04:00 +10°C° 2.1 mm 5 m/s 754 mmHg 84%
    05:00 +10°C° 2.1 mm 5 m/s 754 mmHg 87%
    06:00 +10°C° 2.1 mm 5 m/s 754 mmHg 91%
    07:00 +10°C° 1.7 mm 5 m/s 754 mmHg 91%
    08:00 +10°C° 1.7 mm 5 m/s 754 mmHg 91%
    09:00 +12°C° 1.7 mm 4 m/s 754 mmHg 91%
    10:00 +11°C° 3 mm 3 m/s 754 mmHg 92%
    11:00 +11°C° 3 mm 3 m/s 754 mmHg 93%
    12:00 +12°C° 3 mm 2 m/s 754 mmHg 94%
    13:00 +10°C° 1.9 mm 2 m/s 754 mmHg 94%
    14:00 +10°C° 1.9 mm 3 m/s 753 mmHg 94%
    15:00 +10°C° 1.9 mm 3 m/s 753 mmHg 93%
    16:00 +10°C° 0.6 mm 3 m/s 753 mmHg 92%
    17:00 +10°C° 0.6 mm 3 m/s 753 mmHg 91%
    18:00 +10°C° 0.6 mm 3 m/s 753 mmHg 90%
    19:00 +10°C° 0.3 mm 3 m/s 754 mmHg 90%
    20:00 +10°C° 0.3 mm 3 m/s 754 mmHg 89%
    21:00 +10°C° 0.3 mm 3 m/s 755 mmHg 89%
    22:00 +10°C° 0.1 mm 3 m/s 755 mmHg 89%
    23:00 +10°C° 0.1 mm 3 m/s 756 mmHg 88%

    19 Februarie, Marţi

    Timp Temperatura Precipitaţii Vânt Presiune Umiditate
    00:00 +10°C° 0.1 mm 3 m/s 756 mmHg 88%
    01:00 +9°C° 0 mm 2 m/s 756 mmHg 88%
    02:00 +9°C° 0 mm 2 m/s 756 mmHg 88%
    03:00 +9°C° 0 mm 2 m/s 756 mmHg 88%
    04:00 +8°C° 0 mm 2 m/s 756 mmHg 88%
    05:00 +8°C° 0 mm 2 m/s 756 mmHg 89%
    06:00 +8°C° 0 mm 2 m/s 756 mmHg 89%
    07:00 +9°C° 0 mm 2 m/s 757 mmHg 86%
    08:00 +10°C° 0 mm 2 m/s 757 mmHg 83%
    09:00 +12°C° 0 mm 2 m/s 758 mmHg 80%
    10:00 +13°C° 0 mm 2 m/s 758 mmHg 73%
    11:00 +15°C° 0 mm 2 m/s 758 mmHg 67%
    12:00 +16°C° 0 mm 2 m/s 758 mmHg 61%
    13:00 +17°C° 0 mm 2 m/s 758 mmHg 58%
    14:00 +17°C° 0 mm 2 m/s 757 mmHg 56%
    15:00 +19°C° 0 mm 1 m/s 757 mmHg 53%
    16:00 +17°C° 0 mm 2 m/s 757 mmHg 59%
    17:00 +15°C° 0 mm 2 m/s 757 mmHg 65%
    18:00 +14°C° 0 mm 2 m/s 757 mmHg 70%
    19:00 +14°C° 0 mm 2 m/s 758 mmHg 74%
    20:00 +13°C° 0 mm 2 m/s 758 mmHg 79%
    21:00 +12°C° 0 mm 2 m/s 758 mmHg 83%
    22:00 +12°C° 0 mm 1 m/s 759 mmHg 84%
    23:00 +11°C° 0 mm 1 m/s 759 mmHg 85%

    20 Februarie, Miercuri

    Timp Temperatura Precipitaţii Vânt Presiune Umiditate
    00:00 +11°C° 0 mm 1 m/s 759 mmHg 86%
    01:00 +11°C° 0 mm 1 m/s 759 mmHg 86%
    02:00 +11°C° 0 mm 1 m/s 758 mmHg 87%
    03:00 +10°C° 0 mm 1 m/s 758 mmHg 87%
    04:00 +10°C° 0 mm 1 m/s 758 mmHg 88%
    05:00 +9°C° 0 mm 2 m/s 758 mmHg 88%
    06:00 +8°C° 0 mm 2 m/s 758 mmHg 88%
    07:00 +9°C° 0 mm 2 m/s 759 mmHg 84%
    08:00 +10°C° 0 mm 2 m/s 759 mmHg 79%
    09:00 +12°C° 0 mm 2 m/s 759 mmHg 75%
    10:00 +14°C° 0 mm 2 m/s 760 mmHg 68%
    11:00 +16°C° 0 mm 2 m/s 760 mmHg 62%
    12:00 +17°C° 0 mm 2 m/s 760 mmHg 56%
    13:00 +18°C° 0 mm 2 m/s 759 mmHg 53%
    14:00 +18°C° 0 mm 2 m/s 759 mmHg 50%
    15:00 +19°C° 0 mm 2 m/s 759 mmHg 47%
    16:00 +18°C° 0 mm 1 m/s 758 mmHg 51%
    17:00 +16°C° 0 mm 1 m/s 758 mmHg 56%
    18:00 +14°C° 0 mm 0 m/s 758 mmHg 61%
    19:00 +14°C° 0 mm 1 m/s 759 mmHg 64%
    20:00 +13°C° 0 mm 1 m/s 759 mmHg 66%
    21:00 +12°C° 0 mm 1 m/s 760 mmHg 69%
    22:00 +12°C° 0 mm 1 m/s 760 mmHg 70%
    23:00 +12°C° 0 mm 2 m/s 760 mmHg 70%

    21 Februarie, Joi

    Timp Temperatura Precipitaţii Vânt Presiune Umiditate
    00:00 +10°C° 0 mm 2 m/s 760 mmHg 70%
    01:00 +10°C° 0 mm 2 m/s 759 mmHg 72%
    02:00 +9°C° 0 mm 3 m/s 759 mmHg 73%
    03:00 +9°C° 0 mm 3 m/s 759 mmHg 74%
    04:00 +8°C° 0 mm 3 m/s 759 mmHg 75%
    05:00 +7°C° 0 mm 4 m/s 759 mmHg 76%
    06:00 +6°C° 0 mm 4 m/s 759 mmHg 76%
    07:00 +7°C° 0 mm 4 m/s 759 mmHg 76%
    08:00 +8°C° 0 mm 5 m/s 759 mmHg 76%
    09:00 +9°C° 0 mm 5 m/s 760 mmHg 77%
    10:00 +12°C° 0 mm 5 m/s 760 mmHg 69%
    11:00 +14°C° 0 mm 5 m/s 760 mmHg 61%
    12:00 +16°C° 0 mm 5 m/s 760 mmHg 54%
    13:00 +17°C° 0 mm 5 m/s 759 mmHg 53%
    14:00 +19°C° 0 mm 5 m/s 759 mmHg 52%
    15:00 +19°C° 0 mm 5 m/s 759 mmHg 51%
    16:00 +17°C° 0 mm 5 m/s 759 mmHg 57%
    17:00 +16°C° 0 mm 5 m/s 759 mmHg 63%
    18:00 +15°C° 0 mm 5 m/s 759 mmHg 69%
    19:00 +14°C° 0 mm 5 m/s 760 mmHg 71%
    20:00 +13°C° 0 mm 5 m/s 760 mmHg 74%
    21:00 +12°C° 0 mm 5 m/s 760 mmHg 77%
    22:00 +11°C° 0 mm 4 m/s 761 mmHg 77%
    23:00 +11°C° 0 mm 4 m/s 761 mmHg 78%
    Arată mai mult